ECMWFFLT1_700_spd_057.txt.gz
Wind_Speed
21 20 19 18 19 21 18 16 15 14 14 13 12 12 11 11 11 11 11 11 10 9 9 9 8 8 10 10 9 11 11 11 11 10 9 9 9 9 9 9 8 7 7 6 6 6 6 5 6 6 6 6 7 8 8 7 6 6 8 9 8 7 6
21 19 18 17 18 20 18 18 18 16 15 14 13 13 12 11 11 11 10 10 9 9 8 8 8 9 10 10 10 11 11 11 11 11 11 10 10 10 9 9 8 8 8 7 7 6 6 7 6 6 7 7 7 8 9 8 7 8 9 9 7 6 5
19 18 17 16 16 17 18 20 18 16 16 15 14 14 12 12 11 11 10 10 9 9 9 9 9 9 10 10 11 11 10 11 11 11 11 11 11 11 9 9 9 9 10 9 8 7 7 7 6 6 7 8 8 8 9 9 9 9 9 8 7 5 4
18 19 17 16 17 18 18 19 18 16 16 15 14 14 13 12 11 11 10 10 10 10 10 10 10 10 10 11 11 10 10 11 11 11 11 11 12 11 9 9 9 10 11 9 8 9 8 7 6 7 8 8 8 9 9 9 9 9 9 8 6 5 5
19 18 17 18 19 21 20 19 18 17 16 15 14 13 13 12 11 11 11 11 11 11 11 12 12 12 12 11 10 10 11 11 10 10 10 11 11 10 9 8 9 11 11 10 9 8 7 6 7 8 8 8 9 9 9 9 9 10 9 7 6 6 6
19 19 19 20 22 24 21 18 17 17 16 14 13 12 11 10 10 10 9 10 10 11 12 12 13 13 12 11 11 11 10 10 9 9 10 11 12 11 10 10 10 11 11 11 10 8 7 7 8 9 8 9 9 9 9 10 10 10 9 7 6 7 7
20 21 21 22 24 24 20 18 18 16 15 14 12 11 10 9 8 8 7 8 9 10 11 12 13 13 12 11 11 10 10 10 10 10 11 12 12 12 11 11 11 11 12 13 11 9 9 9 10 9 9 10 10 9 9 10 10 10 8 7 7 8 8
22 23 23 23 23 21 19 19 19 17 15 14 12 9 8 7 6 6 6 6 7 8 10 11 12 12 13 13 12 11 11 11 11 11 12 12 13 13 12 11 12 13 13 13 13 10 10 11 11 10 10 10 9 9 10 10 10 9 8 8 8 8 8
25 26 26 24 23 21 21 21 20 18 16 14 11 9 7 5 5 4 4 4 5 6 7 9 10 11 12 13 12 11 11 12 13 12 12 12 13 12 12 12 13 14 14 15 14 11 11 12 12 11 11 10 9 10 10 10 10 10 9 9 9 9 8
29 29 29 28 26 24 23 22 20 18 16 13 11 9 6 4 3 2 3 3 4 4 5 7 9 10 10 11 11 11 12 12 12 12 12 12 12 11 12 13 14 15 15 15 14 10 11 13 12 11 11 11 10 9 10 11 11 10 10 11 10 9 8
34 35 34 31 27 25 24 22 20 17 14 12 10 8 5 3 1 1 1 2 3 4 4 6 8 9 9 9 10 10 11 11 11 11 11 11 11 11 11 12 13 14 14 15 13 10 11 13 12 11 13 12 10 9 10 12 12 11 11 11 11 10 9
34 34 33 30 27 25 24 22 19 16 14 12 9 7 5 3 1 1 0 1 2 3 4 5 7 9 9 9 9 9 9 9 9 11 11 11 11 11 11 11 11 13 13 13 12 11 12 14 13 12 13 12 10 9 9 9 11 13 13 12 12 11 9
33 32 29 28 26 25 24 22 19 16 14 12 10 8 5 3 2 1 1 1 1 2 2 3 6 8 9 9 8 8 8 8 9 10 9 9 11 12 12 11 12 12 13 13 12 12 12 14 14 12 13 12 10 9 9 8 10 12 13 13 12 11 9
33 31 29 27 25 25 24 21 19 17 14 12 10 8 6 3 1 1 1 1 1 1 2 2 3 5 7 9 9 10 9 9 10 10 9 9 9 10 11 11 11 12 12 12 13 11 11 13 12 12 14 13 10 10 9 9 12 13 13 14 12 10 9
34 32 31 29 27 26 24 21 19 17 15 13 11 9 6 4 3 1 1 1 1 1 2 2 3 4 6 8 9 11 11 11 10 10 10 9 9 9 9 10 11 11 12 13 13 12 12 13 11 12 14 12 11 11 9 10 16 16 13 14 11 10 10
36 34 32 30 29 28 25 21 19 18 17 14 12 10 7 6 4 2 2 2 2 2 2 2 3 4 6 7 8 9 11 12 11 11 12 11 10 9 8 9 10 11 12 13 13 13 13 11 10 12 13 12 12 11 11 12 16 15 12 13 11 11 10
35 33 32 31 29 28 25 21 20 19 17 14 12 10 8 7 6 3 2 2 2 3 3 3 4 5 5 7 8 8 9 10 11 12 12 12 12 11 8 9 10 11 12 12 12 12 11 10 11 13 13 11 11 12 13 12 12 12 12 13 11 10 10
35 33 32 31 30 27 24 22 21 19 17 15 13 11 9 9 8 6 5 4 4 4 4 4 5 5 6 7 9 8 8 9 9 10 9 9 11 10 8 9 10 10 11 10 11 12 11 10 12 13 12 10 9 12 13 13 10 8 9 12 13 11 10
38 36 33 31 30 26 24 22 20 19 17 15 12 11 11 10 10 10 8 7 7 6 6 6 6 6 7 8 10 10 9 9 9 9 8 8 10 10 9 9 9 9 9 9 11 13 13 13 14 13 13 10 9 10 12 13 14 11 8 10 13 12 10
36 35 31 30 28 26 24 22 19 19 17 14 13 13 12 12 12 13 12 10 9 9 8 8 8 8 9 10 10 11 10 10 10 10 9 9 10 10 9 8 8 9 10 10 11 13 14 14 14 14 13 12 11 11 11 12 14 14 11 10 10 10 10
36 33 31 30 28 26 24 22 20 19 17 15 15 15 14 14 14 15 14 14 13 12 11 10 9 10 11 11 12 12 11 11 11 10 11 10 10 12 11 9 9 10 10 11 13 14 14 14 14 14 14 14 13 13 12 11 11 12 12 11 10 10 11
35 33 31 30 28 26 24 22 21 20 18 17 18 17 17 17 17 17 16 16 16 15 14 13 11 11 12 12 13 13 13 12 11 10 11 12 11 13 13 12 11 9 10 12 14 14 15 15 15 15 15 15 15 14 13 13 13 13 13 13 12 12 13
30 30 29 28 26 25 24 22 21 20 19 19 20 20 20 20 19 19 19 18 18 17 15 14 13 13 13 12 13 14 14 14 12 11 12 14 13 13 14 14 13 12 11 13 15 16 16 15 15 16 16 16 16 16 15 15 15 15 14 14 14 14 15
26 27 26 25 24 24 23 21 20 20 20 20 21 21 22 22 21 21 20 20 20 18 17 16 15 14 14 14 14 14 13 14 13 12 13 15 14 14 14 14 15 16 16 15 16 17 17 17 17 18 18 17 17 17 17 17 16 16 16 16 16 17 17
25 24 24 24 23 22 21 21 21 20 20 20 21 22 23 24 23 24 24 24 23 22 20 20 18 16 15 15 14 13 13 13 13 13 14 14 14 14 15 14 14 16 18 18 18 18 18 19 19 19 19 19 19 18 18 18 18 19 19 19 19 19 20
23 24 23 23 23 22 22 24 23 21 20 20 22 25 28 28 26 26 26 25 25 24 24 23 20 17 16 15 13 12 12 12 12 13 14 15 15 15 15 15 14 14 16 17 18 19 20 20 20 20 21 20 20 20 19 20 20 21 22 22 22 22 23
23 24 23 25 26 25 25 24 21 18 17 17 18 20 22 22 21 20 20 20 21 22 22 22 20 16 15 15 13 12 12 11 11 12 13 14 15 14 15 15 15 15 15 15 18 21 21 22 22 22 22 22 22 22 22 22 23 24 25 25 25 25 25
24 25 25 25 24 21 21 21 18 14 12 12 13 13 14 14 14 13 12 12 13 13 14 16 17 17 17 16 14 13 12 12 12 12 13 14 14 14 14 15 15 16 17 17 20 22 23 23 23 23 23 23 24 24 25 25 25 26 27 28 28 28 28
24 25 24 22 20 18 16 16 14 12 11 11 10 10 10 10 9 9 8 8 7 7 10 13 15 17 18 17 15 14 12 12 13 13 14 15 16 17 18 17 17 18 20 21 21 22 24 24 24 24 25 26 26 28 28 28 29 29 30 31 31 31 32
23 23 21 19 17 17 16 15 14 13 11 9 7 7 7 7 7 7 8 8 8 7 8 11 14 15 16 15 15 13 12 13 13 14 15 15 17 19 20 21 22 22 23 24 23 24 25 27 27 27 28 29 30 31 31 32 33 33 34 35 35 35 36
20 20 19 17 16 15 13 14 14 13 11 10 9 7 6 6 6 7 7 8 8 8 8 9 11 13 14 14 14 14 15 15 15 15 16 17 18 20 21 23 25 26 26 26 26 26 28 29 30 31 31 33 34 34 35 36 37 38 38 38 39 40 40
17 17 16 14 14 13 11 10 11 12 12 12 10 8 7 7 7 7 8 8 9 10 10 11 11 12 13 14 15 15 17 18 17 17 19 19 20 22 23 24 26 27 28 28 29 30 30 31 32 33 34 36 37 38 39 39 41 43 43 42 41 41 42
17 16 14 12 12 12 11 11 10 10 12 12 11 10 9 8 8 7 7 7 9 11 12 12 13 14 14 15 16 17 18 18 18 19 21 22 22 23 26 28 28 27 28 30 30 31 32 33 34 35 36 38 39 41 41 42 43 44 45 45 44 43 42
17 16 14 14 14 12 11 11 11 10 10 10 9 8 7 8 9 9 8 8 9 10 11 12 14 15 15 16 17 18 19 19 19 19 20 21 22 24 27 31 31 28 27 30 31 32 33 34 35 36 36 37 39 40 41 42 42 43 44 45 46 46 44
17 16 15 14 14 12 10 9 9 9 9 8 7 7 7 8 9 10 10 10 11 11 11 13 14 15 16 17 18 19 20 21 21 21 21 22 23 24 27 32 32 28 27 29 31 32 34 35 36 36 37 37 38 40 41 43 43 43 44 45 46 48 48
16 16 15 14 15 13 11 10 9 9 10 10 10 9 10 10 11 11 12 13 14 15 15 15 16 17 17 18 19 20 21 22 22 23 23 24 26 27 29 32 32 30 30 32 33 34 36 37 38 39 39 40 41 42 43 45 46 47 47 48 48 49 50
13 13 13 13 13 12 11 10 9 8 9 10 10 11 11 12 13 14 15 16 17 18 18 18 19 20 20 20 21 22 23 24 25 25 27 28 29 31 32 33 33 34 35 36 37 38 39 40 41 42 43 43 44 45 46 47 48 49 50 50 51 51 51

ECMWFFLT1_700_spd_063.txt.gz
Wind_Speed
12 12 11 11 12 13 14 13 13 14 17 17 17 15 14 13 12 13 14 13 14 14 13 13 13 12 12 12 12 11 11 10 10 9 8 8 8 8 9 8 7 6 6 8 9 8 7 6 7 9 10 10 11 10 9 8 8 7 6 6 6 7 6
14 13 13 12 13 14 14 15 14 16 18 18 17 15 14 13 12 12 14 14 14 14 13 13 12 12 12 11 10 10 11 10 10 9 9 9 9 9 9 8 8 7 7 8 9 9 8 7 6 7 8 9 9 8 8 9 8 8 8 8 10 10 8
11 13 14 14 15 15 15 15 15 17 18 17 17 15 14 13 13 13 15 15 15 14 13 12 12 11 11 11 11 11 11 11 10 10 10 10 9 8 9 9 8 8 7 8 8 8 7 7 7 8 9 8 7 7 8 9 9 9 8 9 9 9 8
9 14 15 14 15 15 16 16 15 16 18 18 18 16 15 14 14 15 16 16 16 14 13 12 12 11 11 11 11 11 11 11 10 10 10 10 8 8 9 9 9 8 8 8 8 8 7 7 7 9 10 9 8 9 10 10 10 10 9 8 8 9 9
14 14 11 12 13 14 16 17 16 17 19 20 19 18 16 15 16 17 17 16 15 14 13 13 11 10 10 10 10 10 10 10 10 10 10 9 8 8 9 9 9 8 8 9 9 9 8 7 8 9 9 10 10 10 10 11 11 9 8 7 8 9 9
12 12 10 11 11 14 17 17 16 18 20 21 20 19 17 16 17 18 17 14 14 13 12 12 11 11 10 10 10 10 9 8 9 9 10 10 9 9 10 9 9 8 9 9 10 10 9 9 9 10 11 11 11 9 9 11 11 9 9 8 9 10 9
7 10 12 13 11 14 18 18 17 20 21 21 21 19 17 17 18 18 16 15 14 13 13 12 12 12 11 11 11 10 9 9 9 9 10 11 10 10 10 9 9 9 9 10 11 10 9 10 10 10 11 11 11 11 11 11 11 10 9 8 10 11 9
7 8 10 12 12 15 18 19 19 21 22 22 22 20 19 18 18 18 17 16 15 14 14 14 13 13 13 12 12 11 10 10 10 10 11 11 11 10 10 9 9 10 10 11 11 10 9 10 10 11 11 11 10 11 11 12 12 11 10 8 10 10 8
11 10 9 12 15 17 20 20 20 22 24 24 22 21 20 19 18 18 16 15 15 15 15 14 14 15 14 13 12 12 12 11 11 11 11 11 11 11 11 10 10 10 11 11 11 10 10 10 10 11 11 10 10 11 11 12 12 12 9 7 9 10 8
15 13 12 15 18 20 22 22 23 23 24 24 23 22 20 18 18 17 15 15 15 14 14 14 15 15 14 13 13 12 12 12 12 12 11 11 12 12 11 11 10 10 11 12 12 11 10 10 11 11 11 10 11 11 11 11 11 10 6 6 9 10 9
19 17 16 19 21 23 24 24 25 25 25 23 22 21 19 19 18 15 15 14 13 13 13 14 15 14 13 13 13 13 13 13 12 12 12 12 11 11 11 10 10 10 11 11 11 11 11 12 12 11 11 10 11 11 10 10 10 8 5 6 8 9 9
21 20 20 22 24 25 25 25 27 27 26 24 22 20 19 18 17 15 14 13 12 12 13 13 13 14 14 13 12 12 13 12 12 12 12 12 11 11 11 10 10 10 11 11 11 11 12 12 12 11 11 11 11 11 11 11 10 7 6 6 7 8 9
21 21 22 25 26 27 26 26 27 28 27 24 21 21 20 18 16 15 14 13 12 12 12 12 12 12 13 13 12 12 12 12 12 11 12 12 12 11 11 11 10 10 11 12 11 11 12 12 11 12 12 12 12 12 12 11 9 7 6 6 6 8 10
21 22 24 27 28 28 28 27 28 28 27 23 21 21 19 17 16 15 14 13 12 12 11 10 10 11 13 13 12 12 12 12 11 11 12 12 11 11 12 11 10 10 10 12 12 12 12 12 13 13 13 13 14 13 13 11 8 7 6 5 5 8 10
22 23 25 28 29 30 29 28 29 29 25 23 22 20 18 17 16 15 13 13 12 11 11 10 10 11 12 12 12 12 12 11 11 11 12 12 11 10 11 10 10 10 11 12 12 11 11 12 13 13 13 14 15 14 13 11 9 8 7 5 6 7 9
20 24 27 28 30 32 30 29 29 28 25 24 23 20 18 17 15 14 13 12 11 11 11 10 10 10 11 12 12 12 12 11 11 12 12 13 11 11 9 8 9 11 12 12 11 10 10 11 12 13 14 14 14 15 14 13 11 9 8 8 8 7 8
21 26 29 29 30 32 31 31 31 28 26 26 24 21 19 17 15 14 13 12 11 10 10 10 9 10 10 11 11 12 12 11 12 14 14 13 12 12 10 8 9 11 11 11 11 11 11 11 11 13 13 13 14 15 15 14 12 10 10 11 9 7 7
23 27 29 30 31 32 33 34 33 30 28 27 23 21 19 16 15 13 12 12 10 9 9 8 8 9 9 9 9 10 10 10 12 14 14 13 13 13 13 11 10 10 10 11 11 12 12 11 12 13 13 14 16 16 16 16 12 11 12 11 10 7 8
22 25 28 31 32 34 35 35 34 32 29 26 22 20 19 16 15 14 12 11 9 7 6 6 6 6 6 6 7 8 8 9 11 12 13 15 14 14 15 14 11 10 10 11 11 11 11 11 13 14 14 16 17 17 17 16 13 13 13 11 10 8 8
23 25 28 31 34 36 36 36 38 35 30 26 23 21 19 17 16 14 12 9 8 6 5 5 4 3 3 4 5 6 6 7 9 9 12 12 11 13 15 15 13 12 11 11 11 12 11 11 12 14 15 16 17 17 16 15 14 14 14 12 10 9 8
23 27 30 32 34 37 37 38 40 36 29 26 24 22 21 19 16 13 11 9 7 6 4 3 3 3 2 3 4 5 5 7 8 9 10 9 8 11 14 15 14 14 13 12 11 12 13 13 13 15 17 18 18 15 14 15 16 16 15 14 12 10 8
24 29 31 33 35 36 38 39 37 33 28 26 25 23 22 19 15 13 11 10 7 6 6 5 4 4 3 3 4 5 6 7 8 9 10 8 9 12 14 14 14 13 13 13 12 12 13 13 15 17 18 17 16 13 13 16 17 17 17 16 14 11 8
26 30 31 32 34 36 38 39 36 32 29 28 25 23 21 18 15 13 11 9 8 8 8 7 7 7 6 5 5 5 6 8 9 10 10 10 11 12 13 14 14 14 14 14 13 13 13 13 14 16 15 14 13 13 15 17 17 17 18 17 15 13 11
26 31 32 31 34 37 37 35 35 33 29 26 23 20 19 17 15 13 11 10 11 11 10 10 10 10 10 9 8 7 8 9 10 10 11 12 11 11 13 15 15 14 13 12 12 14 14 13 13 13 12 12 11 12 15 18 19 19 19 18 17 16 15
25 31 32 30 32 36 33 29 31 31 27 23 21 18 18 17 15 14 14 14 14 13 12 13 13 13 13 12 12 11 11 11 12 11 12 13 12 11 13 15 16 15 13 11 11 13 14 13 13 12 13 13 13 12 13 16 19 20 21 21 21 20 19
24 28 31 30 32 34 33 31 31 29 26 24 22 20 19 18 16 16 16 15 15 14 14 15 15 15 15 15 15 15 13 13 13 12 14 15 13 12 13 14 16 17 15 14 13 13 13 13 13 14 14 14 14 14 13 15 18 20 21 22 22 22 22
24 25 28 31 31 31 32 32 31 28 24 23 23 22 21 19 18 18 17 16 16 16 16 17 17 18 18 18 18 17 15 14 13 14 14 14 14 13 12 13 14 15 15 14 14 14 14 14 15 15 15 15 15 14 15 16 17 18 19 20 20 21 22
23 23 25 27 28 29 30 31 31 28 24 22 23 22 21 19 19 18 17 16 17 17 18 18 20 21 22 21 19 17 16 15 15 15 14 13 13 13 12 11 11 12 12 13 13 13 13 14 14 14 15 15 16 16 17 18 19 20 20 21 21 21 22
21 21 23 26 27 28 29 29 30 30 26 23 22 22 20 19 19 18 18 18 18 17 16 17 18 19 18 16 14 15 16 16 15 15 14 12 12 12 11 11 11 12 12 12 12 13 13 12 12 12 12 14 16 17 19 19 20 21 21 22 22 22 23
20 18 20 24 26 26 27 29 30 30 27 24 22 21 21 20 21 21 20 18 16 14 13 12 12 12 11 10 11 14 15 14 13 13 11 11 11 11 11 11 11 12 13 13 13 13 13 13 13 13 13 14 16 17 18 19 20 21 21 22 23 24 24
21 20 20 23 25 26 27 28 29 29 28 26 24 23 23 23 22 20 18 15 12 11 9 8 8 9 10 12 12 13 14 13 12 11 10 11 12 12 11 11 12 12 13 14 14 14 14 14 15 16 16 17 17 18 19 20 21 22 23 24 25 26 27
24 25 25 25 25 27 28 29 29 29 28 27 26 24 23 21 18 16 14 12 11 10 9 8 8 9 11 12 13 14 13 12 12 11 12 12 12 12 12 11 11 11 12 13 13 14 15 16 17 18 19 19 20 21 22 23 24 25 26 27 29 30 31
24 25 27 27 27 27 28 29 30 30 28 25 24 22 20 19 16 14 13 13 12 12 11 9 8 9 10 11 12 13 13 14 14 14 14 14 13 13 12 12 12 12 12 13 14 15 16 17 18 19 20 21 22 24 25 26 28 29 30 30 32 33 34
27 26 26 26 28 30 29 28 30 29 26 23 23 22 21 19 17 15 15 15 15 13 11 10 9 9 10 10 11 11 12 13 15 15 15 14 14 13 13 14 14 15 15 16 17 18 19 21 22 23 24 25 26 27 28 29 30 31 32 33 34 36 37
28 29 28 27 29 31 30 28 27 25 24 23 23 23 22 20 18 17 16 16 16 14 12 11 10 9 9 10 10 11 11 12 13 14 13 13 13 14 15 15 15 16 17 18 19 20 21 22 24 25 26 27 28 29 30 31 32 33 34 35 36 37 38
24 26 27 26 26 27 26 24 22 22 23 23 22 21 20 19 18 17 16 15 14 13 12 11 10 9 8 9 10 10 11 11 12 13 13 14 14 15 16 17 17 18 19 20 21 21 22 23 24 25 27 28 29 31 32 33 34 35 36 37 39 40 41
22 22 22 21 21 21 22 22 22 23 23 22 20 19 19 18 17 18 18 16 14 12 11 11 10 10 9 10 11 11 12 12 13 14 16 17 17 18 19 20 21 22 22 23 23 24 25 26 27 28 29 30 32 33 34 35 37 38 39 40 42 43 44

ECMWFFLT1_700_spd_069.txt.gz
Wind_Speed
11 12 13 14 16 17 18 19 21 21 22 22 21 20 20 19 19 20 22 22 21 20 19 17 18 20 20 20 19 18 19 18 17 16 16 15 13 13 13 12 12 11 11 10 10 9 9 9 8 6 6 7 8 9 9 8 7 7 8 7 6 5 4
16 17 18 19 19 19 20 21 22 23 23 22 21 20 20 20 20 21 23 22 21 20 19 19 20 20 20 20 19 18 18 18 17 17 16 15 14 14 13 13 12 12 11 10 9 8 9 9 8 6 6 6 6 8 8 8 8 9 8 7 6 5 5
18 19 21 21 21 21 22 23 23 23 24 24 21 20 21 21 22 23 23 23 21 21 21 22 22 20 19 19 19 19 19 18 18 17 16 15 15 14 14 13 13 12 11 10 8 7 8 8 7 7 6 5 5 7 8 8 9 9 7 6 6 6 6
18 20 22 23 22 22 23 24 24 24 25 25 22 21 22 23 24 25 24 23 23 23 23 23 22 19 18 18 19 19 18 18 18 17 16 15 15 14 14 14 13 12 12 11 10 9 8 8 8 7 7 6 7 8 9 9 9 9 7 6 6 6 6
20 21 23 24 23 23 23 24 25 26 26 24 22 21 23 23 25 26 26 25 24 24 24 23 20 19 18 19 19 19 18 19 19 18 16 16 15 13 13 14 13 13 13 12 11 11 10 11 10 9 7 8 8 8 8 8 9 9 7 7 7 6 6
22 22 23 23 22 22 21 22 24 26 26 25 22 21 23 23 25 26 26 24 24 24 23 22 20 19 19 19 19 19 19 19 19 18 17 16 15 14 15 15 14 13 13 12 11 11 11 11 11 9 8 8 9 9 8 7 8 8 8 7 6 5 6
25 24 23 23 21 20 19 21 23 24 26 26 24 23 23 24 26 26 26 25 23 22 22 21 20 20 19 19 19 19 19 19 18 18 17 17 16 16 16 16 15 14 14 13 12 11 11 11 11 10 9 9 10 9 8 8 8 8 8 8 6 5 7
27 26 25 24 22 18 18 20 21 22 24 25 25 25 25 25 26 27 29 27 23 21 21 21 21 21 20 19 20 19 19 19 18 18 17 17 16 16 16 16 15 15 15 14 13 12 12 12 13 13 11 10 10 9 7 7 8 8 10 9 7 7 8
26 28 29 26 22 17 18 19 19 20 22 23 26 27 26 25 26 29 29 25 21 21 20 20 21 21 20 20 20 19 19 18 18 17 17 16 16 15 15 16 16 16 16 15 14 14 14 14 14 14 12 11 10 9 9 8 7 9 10 9 8 8 8
28 31 30 24 19 17 18 19 19 19 21 22 24 26 25 25 26 28 27 23 22 23 21 21 21 21 20 20 19 18 18 18 17 17 17 16 16 15 15 16 16 17 16 15 15 15 15 15 15 13 12 12 11 10 10 9 8 8 9 9 9 9 8
29 31 28 22 19 19 19 20 20 20 22 23 23 24 24 24 26 27 26 25 25 25 22 20 20 20 21 20 19 18 18 18 18 17 17 16 16 16 15 16 16 16 16 15 15 16 16 16 16 14 14 14 12 11 11 10 9 9 9 9 9 9 8
26 27 28 26 23 20 20 20 21 20 21 23 24 23 22 24 26 26 25 26 26 24 21 20 20 20 21 21 20 19 19 18 18 17 17 16 16 16 16 16 16 15 15 15 16 16 16 17 16 16 16 15 14 13 12 10 9 9 10 10 10 10 9
25 26 29 29 26 22 21 22 21 20 22 24 24 23 23 24 26 25 23 25 25 22 19 20 21 21 21 21 20 20 19 19 18 18 17 17 16 16 16 16 16 16 15 15 16 17 17 18 18 17 17 17 16 14 12 11 10 10 12 12 12 11 10
26 27 28 29 28 26 24 24 23 23 24 24 23 24 24 26 27 25 23 23 23 21 19 20 21 20 20 20 20 20 20 20 19 19 18 17 16 16 16 17 17 17 17 16 16 17 18 19 19 18 18 18 17 15 13 12 10 10 13 13 12 11 11
24 26 28 30 31 29 27 27 27 26 25 24 23 24 27 30 28 24 23 24 23 21 20 20 20 20 20 20 20 21 21 20 20 19 18 17 17 16 16 17 18 18 18 18 18 18 18 19 19 19 19 19 18 16 14 12 11 11 13 13 12 12 12
26 27 28 30 32 31 29 30 30 27 25 24 23 24 28 31 28 25 25 25 23 21 20 20 20 20 20 20 21 21 21 20 19 19 18 19 18 17 17 18 18 18 18 19 19 18 18 19 19 19 19 19 19 17 16 14 13 14 14 14 13 12 12
28 29 29 31 32 32 32 32 30 27 26 26 26 25 28 29 27 27 28 25 21 21 21 20 19 19 19 19 20 20 19 19 18 18 18 19 18 18 18 18 18 19 19 19 18 18 18 18 19 20 20 20 19 18 17 16 15 15 14 14 14 13 12
27 28 28 29 30 33 35 34 31 29 28 27 28 28 28 28 28 28 26 22 21 21 20 19 19 18 18 18 18 18 18 18 18 17 17 17 18 18 17 17 18 18 18 17 18 18 18 18 19 21 20 18 18 18 18 17 16 15 14 14 14 15 14
28 29 28 28 29 33 36 36 33 31 29 28 30 30 28 27 29 27 23 21 22 21 19 19 19 18 18 18 17 17 18 18 17 17 16 16 17 17 16 16 17 18 17 17 18 19 19 19 20 21 18 16 18 20 19 18 17 16 16 15 15 16 15
30 30 29 30 31 33 36 37 35 33 31 29 30 29 26 27 28 26 22 22 21 20 19 19 18 18 17 17 17 16 17 17 17 16 16 16 16 16 16 17 18 18 17 17 18 19 19 20 20 20 18 17 19 20 20 20 19 17 17 16 15 16 16
29 29 28 30 32 33 34 34 34 34 33 32 30 26 26 29 28 25 22 22 22 21 20 18 17 16 15 15 15 15 16 16 15 15 15 15 16 17 18 18 19 19 19 19 18 19 19 19 19 19 18 18 19 19 20 21 20 18 17 16 16 16 16
28 29 28 28 30 31 32 31 31 32 33 31 29 28 30 31 28 25 24 23 23 22 20 19 17 16 15 15 14 14 14 13 13 13 14 15 15 16 18 19 19 20 20 20 20 19 19 18 19 19 19 19 18 18 20 23 23 20 17 17 16 15 16
28 28 28 28 29 29 30 29 28 30 31 29 28 30 32 31 27 26 26 24 23 22 20 20 18 17 16 15 14 14 13 12 12 12 12 13 14 15 16 17 19 20 21 21 21 21 19 18 19 20 19 17 17 18 20 24 24 20 17 17 16 16 16
25 26 27 27 27 28 29 28 28 31 31 30 31 33 32 30 29 28 26 24 23 23 22 20 19 18 17 15 14 13 13 12 12 12 12 13 13 14 15 16 17 19 19 20 22 22 21 20 20 20 18 16 17 18 19 21 22 20 17 17 16 16 16
22 24 25 25 24 25 27 29 29 29 29 30 34 36 33 30 30 29 26 26 26 24 22 20 18 17 16 14 13 12 12 12 12 12 12 12 12 13 15 16 17 18 18 19 20 21 21 21 20 20 19 18 18 18 18 19 21 20 18 17 16 16 16
20 22 23 22 21 22 25 27 28 27 29 33 36 37 36 32 31 31 29 28 26 24 22 19 18 17 15 13 13 12 11 12 12 12 12 11 12 13 14 16 17 17 18 19 19 20 20 20 20 20 19 18 19 18 17 18 20 19 18 18 17 17 17
18 20 19 17 20 24 23 24 27 27 30 35 36 35 36 35 34 33 32 29 25 22 20 19 17 16 14 13 12 12 12 12 13 13 13 13 14 14 15 16 17 17 18 19 19 20 19 19 19 19 18 18 19 18 17 18 19 19 19 19 19 19 19
14 16 16 15 19 24 22 22 26 27 30 36 36 34 36 36 35 33 31 28 24 21 19 19 18 16 14 13 13 13 13 14 15 16 16 17 16 16 16 17 17 17 17 18 19 20 19 19 18 18 18 19 20 19 19 18 19 19 20 20 20 20 20
13 15 15 15 22 26 22 21 24 28 35 37 34 32 34 36 34 31 28 25 23 22 21 20 18 17 16 15 15 15 16 16 17 18 19 19 18 17 17 17 18 18 18 18 19 20 20 19 18 18 18 19 20 20 19 19 19 20 21 21 21 21 21
11 14 13 14 25 28 23 24 30 36 37 34 30 29 33 34 32 27 25 24 23 23 22 20 19 18 17 17 17 18 18 19 20 20 21 21 20 19 18 18 18 18 18 18 19 20 20 18 18 19 19 20 20 20 20 20 20 22 23 23 23 24 24
13 15 13 12 25 28 25 29 33 34 32 29 28 30 33 34 31 26 24 24 24 23 22 21 20 19 19 20 20 20 20 21 22 23 23 24 23 21 19 18 18 18 18 18 20 20 21 20 19 20 20 20 20 20 21 22 22 23 24 24 25 26 27
12 14 12 15 21 20 24 30 30 29 30 31 33 35 35 35 31 27 25 24 23 23 22 21 21 21 21 22 22 22 23 23 24 24 24 24 22 19 18 18 19 20 20 20 20 20 20 21 21 21 21 20 20 21 22 22 23 23 24 24 25 26 27
7 9 11 16 16 14 19 25 28 29 31 33 35 37 36 35 32 28 25 22 21 21 21 21 22 22 23 23 23 24 24 22 22 22 21 20 18 16 16 17 19 21 21 19 18 18 18 18 18 19 19 19 19 20 21 22 22 23 23 24 25 26 27
7 10 13 14 14 15 18 22 25 26 28 30 33 35 35 34 31 28 25 23 22 22 21 23 23 23 24 24 23 21 20 19 20 19 18 17 17 17 17 17 18 19 19 18 18 17 17 17 17 18 18 19 20 22 22 23 24 24 25 26 26 27 28
12 11 14 14 13 16 19 20 22 24 25 28 30 31 33 33 31 29 27 26 24 23 23 24 24 24 25 22 19 18 17 18 19 18 18 17 17 17 17 17 17 18 18 18 18 17 18 19 19 20 21 22 23 24 25 25 26 26 27 27 28 29 29
16 13 15 17 16 19 22 23 22 22 24 28 30 30 31 31 31 30 29 27 26 25 25 25 25 25 23 20 17 16 16 16 17 16 17 17 17 17 16 16 16 16 16 17 17 18 20 20 21 22 23 23 24 25 25 26 26 27 28 28 29 30 31
14 13 15 19 21 22 22 23 24 24 24 27 31 31 31 31 31 30 29 27 27 27 27 27 26 24 21 19 17 17 16 16 16 16 17 17 17 17 17 16 17 17 18 18 19 20 20 21 22 22 23 24 24 25 26 26 27 28 29 30 31 32 33

ECMWFFLT1_700_spd_072.txt.gz
Wind_Speed
19 21 21 19 17 16 16 17 18 18 19 21 21 21 20 20 19 19 20 20 20 21 22 22 21 21 21 21 21 20 19 19 17 16 15 14 14 14 14 15 14 13 12 11 10 9 8 7 5 4 5 3 4 6 6 6 6 6 5 5 5 5 5
19 20 21 21 19 17 17 18 19 20 21 22 23 22 22 21 20 19 20 20 21 22 22 22 22 22 22 22 21 20 19 18 17 16 16 14 14 15 15 15 15 14 13 11 9 8 7 6 4 3 4 3 3 5 6 6 6 6 5 4 5 5 5
20 20 20 21 20 19 19 19 20 23 23 22 23 23 23 22 20 20 21 21 22 23 23 23 23 23 23 22 21 20 19 17 17 17 16 15 16 16 16 16 15 14 13 12 11 10 9 8 6 3 3 4 5 5 6 7 7 7 6 5 6 6 6
21 20 20 21 20 20 21 21 22 23 22 21 22 22 22 21 19 20 22 22 23 24 24 24 23 23 23 22 22 21 19 18 18 18 17 17 17 17 16 15 14 13 13 14 13 12 10 9 8 6 5 5 7 7 7 8 8 8 7 6 6 7 6
22 21 21 21 22 22 23 24 24 22 21 21 21 21 21 22 21 21 23 24 25 25 25 24 23 23 23 23 22 21 20 19 19 19 18 17 17 17 16 14 14 14 14 14 13 12 10 10 9 7 6 6 7 8 8 8 8 8 7 6 6 6 6
25 25 24 23 24 25 26 27 24 22 21 22 21 20 20 22 23 23 24 26 27 26 25 24 24 24 24 24 24 21 20 20 19 19 19 18 18 18 17 16 16 15 15 14 13 12 11 9 8 7 7 6 7 8 8 8 7 7 7 7 6 6 5
30 29 27 25 25 27 29 28 25 22 22 21 21 21 20 22 24 25 26 27 27 26 25 25 26 26 25 25 25 22 20 20 20 20 19 18 19 18 17 17 17 16 15 15 14 13 11 9 8 8 8 7 7 8 8 7 6 6 7 8 7 6 6
33 31 28 25 24 27 29 28 26 24 22 21 22 22 22 23 25 26 27 27 26 26 26 26 27 27 25 24 24 21 20 20 20 20 19 19 19 18 17 17 17 16 16 15 14 13 12 11 10 10 9 8 8 8 8 7 6 6 7 7 7 6 6
32 32 28 24 23 26 28 28 27 26 24 22 22 22 24 25 25 25 26 27 28 28 27 28 28 26 25 25 24 22 21 20 20 19 18 18 19 18 18 18 17 16 16 16 15 14 14 13 12 11 11 10 9 9 8 8 7 8 8 7 6 6 6
33 31 28 25 25 26 26 26 26 25 25 23 21 21 23 24 23 24 25 26 28 27 27 27 26 24 25 26 25 23 21 19 19 19 18 18 19 19 18 18 17 17 17 16 16 15 15 14 13 12 11 11 10 10 9 10 10 10 10 8 8 7 6
34 31 29 28 26 25 26 28 27 26 25 24 21 20 21 22 23 22 23 26 26 26 26 25 24 24 25 26 25 22 20 20 20 19 19 19 19 19 18 18 18 18 17 16 16 16 15 14 14 13 12 12 12 11 10 11 12 12 10 9 9 9 8
36 32 29 28 26 22 25 29 28 27 26 24 22 21 20 22 22 21 22 25 25 25 25 25 24 25 25 25 25 22 21 20 20 20 20 20 19 18 18 17 17 17 16 16 16 16 15 15 14 13 13 13 13 12 12 12 12 12 12 11 11 11 10
36 32 29 28 25 21 22 26 28 28 27 25 23 22 21 21 22 22 22 24 24 25 26 24 23 23 24 25 25 23 21 21 21 20 19 19 18 17 17 17 17 17 16 16 16 16 15 15 15 14 15 14 13 13 12 12 13 13 13 12 12 12 11
27 27 26 26 24 21 22 26 28 30 29 27 25 23 22 21 22 23 23 23 24 26 26 24 22 23 24 26 26 23 22 21 20 19 18 18 17 17 17 17 17 16 16 16 16 16 15 16 16 16 16 15 14 13 13 13 14 15 15 13 11 11 11
21 23 23 23 24 23 25 27 28 31 32 30 28 25 23 21 22 24 24 24 26 27 26 24 24 24 23 24 25 23 21 20 19 18 18 17 17 18 17 17 17 17 16 16 16 16 16 16 17 17 17 16 14 14 14 15 15 16 16 14 12 12 12
21 23 23 25 26 27 27 28 29 31 33 32 30 26 23 22 23 24 24 25 27 27 26 25 23 23 22 23 24 22 20 19 18 18 18 18 18 18 18 18 17 17 17 17 17 17 17 17 17 18 18 17 15 15 15 15 16 17 17 16 13 13 14
21 22 24 27 28 29 30 29 29 30 31 32 30 27 24 23 23 25 25 26 27 26 25 24 23 22 21 23 24 22 20 19 19 19 19 19 19 19 18 18 18 18 18 17 17 17 17 18 18 18 18 16 15 16 16 16 16 17 18 16 14 14 15
21 22 24 27 28 29 30 30 30 30 30 31 31 28 26 25 24 26 26 26 27 26 26 25 22 21 22 23 23 21 19 20 20 19 19 19 20 19 19 18 18 18 18 17 17 17 18 18 18 18 18 16 16 17 16 16 17 17 18 17 15 15 15
24 25 25 27 28 29 29 29 30 29 29 31 32 31 29 26 26 26 26 26 28 27 27 25 23 22 23 23 23 21 20 20 20 20 20 19 19 19 19 19 19 18 17 17 17 17 17 17 17 17 17 17 17 17 17 17 18 18 18 18 17 16 16
28 28 28 27 29 30 30 29 29 28 28 29 32 33 31 28 27 27 26 26 27 29 29 27 24 23 24 24 22 20 19 19 19 19 19 18 18 18 19 19 18 18 17 17 17 17 17 16 16 17 18 18 18 17 17 18 19 19 19 18 18 17 18
30 31 30 29 29 29 29 28 28 28 29 29 31 33 33 30 27 27 26 26 28 31 32 28 25 25 24 22 20 18 17 17 17 18 18 18 18 19 19 19 18 18 18 18 17 17 16 16 15 16 18 19 18 17 17 17 19 20 20 19 19 19 20
28 30 31 30 29 28 28 28 28 29 29 30 31 32 32 31 29 27 27 28 30 33 33 29 25 24 23 20 17 17 16 16 17 17 17 18 18 19 18 19 18 19 19 18 18 17 17 16 15 15 17 18 18 18 18 18 18 20 23 23 22 21 21
27 28 29 29 29 28 28 28 29 29 29 29 31 31 29 30 30 27 28 30 31 33 32 27 23 22 20 17 16 15 16 16 16 17 17 18 18 18 18 18 18 19 19 19 18 18 18 18 16 15 16 16 17 18 18 18 18 19 22 24 22 21 21
27 27 27 27 28 27 27 28 28 28 28 28 30 29 26 27 28 28 28 29 30 32 30 25 22 21 18 17 16 15 15 15 16 16 16 16 17 17 17 17 17 17 18 18 18 18 18 18 18 17 16 15 15 16 17 18 19 18 20 22 21 19 18
27 27 26 25 25 25 24 25 26 27 27 27 27 27 26 27 27 28 30 30 31 30 27 24 22 20 18 17 16 15 16 16 16 15 15 14 14 14 14 14 15 15 15 15 16 16 17 18 19 19 18 16 15 16 16 18 19 18 19 21 21 18 16
24 24 24 24 24 23 22 22 23 24 25 26 27 26 27 28 29 31 33 33 32 29 26 24 22 20 18 17 17 16 17 16 15 14 13 13 12 12 12 12 13 13 14 14 14 14 15 16 17 19 19 17 16 16 17 17 18 17 16 18 19 17 16
20 20 21 22 22 21 20 21 21 21 22 25 26 27 29 30 32 34 35 33 31 29 26 24 21 20 19 18 18 17 16 15 14 13 13 12 12 12 12 12 13 13 14 14 14 14 14 14 16 17 18 18 17 17 17 17 17 16 15 16 18 18 17
17 17 18 19 20 19 19 19 19 19 19 22 26 28 30 32 33 35 36 34 31 29 27 23 21 20 19 18 18 17 15 14 14 13 13 13 13 13 13 13 13 13 15 16 15 15 15 15 15 16 17 17 17 17 17 17 17 17 16 17 18 18 18
14 14 15 15 16 16 17 18 17 15 17 22 25 25 29 34 34 34 35 33 30 28 27 24 21 21 20 19 18 17 16 15 14 14 14 14 14 14 14 14 14 14 15 16 16 16 15 15 15 15 15 16 16 17 17 17 17 17 18 18 19 19 19
13 14 15 15 16 16 16 16 13 13 19 22 22 23 31 36 35 34 34 32 29 28 26 25 23 22 21 20 19 18 17 16 15 15 16 16 16 16 16 16 16 16 16 16 16 16 14 13 13 13 14 15 15 16 17 17 18 19 20 20 19 19 20
15 13 13 16 21 21 18 15 14 17 19 20 19 24 32 35 34 33 33 31 29 27 27 25 24 23 22 21 20 19 18 17 16 17 17 17 17 17 17 17 17 17 17 16 16 15 13 12 12 12 13 14 14 15 17 18 18 19 19 19 19 19 21
17 13 11 15 18 14 8 9 17 18 15 15 21 26 30 34 35 31 30 29 27 26 27 26 24 23 22 22 21 20 18 18 18 18 18 19 19 20 19 19 18 18 17 15 15 14 14 14 15 15 14 14 14 15 16 17 17 18 17 17 18 20 21
16 15 14 15 15 11 5 5 16 19 15 17 24 28 31 35 35 30 27 26 25 26 27 26 25 24 23 23 22 21 19 19 19 19 20 21 22 22 21 19 17 17 16 15 14 13 14 15 16 17 17 17 17 17 17 16 16 17 17 18 19 20 21
13 14 12 13 15 14 13 8 10 18 20 22 24 26 29 32 31 29 27 26 27 28 28 27 26 25 24 24 22 21 20 20 20 21 22 23 22 21 18 17 16 16 16 17 16 16 16 16 16 16 17 16 16 16 16 16 16 17 18 19 20 21 22
13 12 10 10 12 13 13 13 11 13 19 21 20 21 25 29 32 33 31 29 29 29 28 27 27 26 25 24 23 22 21 21 22 22 21 21 19 17 16 16 16 16 16 17 17 17 17 17 15 15 15 14 14 15 16 17 18 19 20 21 22 24 25
14 12 9 8 9 10 12 14 13 13 17 20 22 24 25 29 33 34 31 28 27 27 26 26 25 24 24 23 22 22 22 22 23 23 20 18 17 16 17 17 17 16 16 16 16 17 17 16 16 15 15 15 15 16 17 19 20 21 23 24 25 26 27
10 8 6 7 9 9 11 15 18 18 18 20 24 27 27 28 30 31 29 27 27 27 25 24 24 23 23 23 23 23 23 23 23 21 19 17 17 18 18 17 17 17 16 16 16 16 16 16 15 15 16 16 17 19 20 21 22 23 24 25 26 27 28

ECMWFFLT1_700_spd_075.txt.gz
Wind_Speed
16 18 19 20 21 21 23 25 27 27 25 25 24 23 23 22 22 24 24 23 22 22 23 23 24 24 22 23 24 22 21 21 19 17 17 17 16 16 15 15 14 13 12 10 9 8 7 6 6 6 6 6 5 6 6 8 8 8 7 7 7 7 8
17 18 19 20 22 24 23 23 25 25 23 21 21 22 22 22 22 23 23 23 22 22 22 22 25 26 23 22 23 22 20 19 18 18 17 16 16 16 17 16 14 13 12 11 10 10 9 8 7 7 7 6 6 7 7 8 8 8 7 7 7 7 7
20 20 21 21 22 23 22 21 22 22 21 21 21 22 22 22 22 22 23 23 22 22 22 21 23 24 22 22 22 21 20 20 19 18 16 16 17 17 17 16 14 13 12 11 11 12 12 10 9 10 8 7 8 8 8 9 8 8 8 7 7 7 7
23 23 23 21 21 22 21 20 19 17 17 20 21 21 21 22 22 21 22 22 22 23 22 21 22 22 22 23 22 22 21 20 19 18 17 17 18 18 17 15 14 13 12 12 13 13 12 11 10 11 10 9 9 9 9 10 9 8 8 8 7 7 7
26 25 24 22 21 22 21 21 20 17 16 18 19 19 19 21 22 21 21 21 22 23 22 22 22 23 24 24 23 22 22 20 20 19 18 18 18 18 17 15 14 14 13 13 13 12 12 11 10 10 11 10 9 9 10 10 10 9 8 8 8 7 7
29 26 24 23 22 21 20 20 21 21 21 20 18 16 17 20 23 23 22 21 21 22 22 23 23 24 26 25 23 22 20 21 22 20 19 19 18 18 17 17 16 15 14 14 13 13 12 12 10 10 12 11 10 10 10 10 10 9 9 9 9 8 8
31 27 24 25 24 22 21 20 21 22 22 21 19 17 16 18 22 23 23 21 22 23 23 23 23 24 25 25 24 22 21 22 22 20 20 20 19 19 19 18 17 16 16 15 14 14 13 13 12 11 12 12 11 10 11 11 11 10 10 11 11 10 9
32 29 27 28 27 25 24 22 21 21 21 20 20 20 17 18 20 21 23 23 24 25 23 23 23 23 24 25 25 23 23 23 21 20 21 20 20 20 19 18 17 17 17 16 15 15 14 14 14 13 13 13 12 11 11 11 11 11 11 11 11 11 11
32 31 30 30 30 30 27 24 22 22 21 19 19 19 18 18 19 20 22 24 26 26 24 24 24 21 22 24 24 23 24 23 22 22 22 21 21 21 20 19 19 18 18 17 16 16 15 15 15 14 14 13 12 12 12 12 12 12 12 12 12 12 12
31 32 32 32 32 33 31 28 25 23 19 17 17 18 18 18 19 20 21 23 25 26 26 27 24 21 21 22 23 24 24 24 23 24 24 22 22 22 21 20 20 19 19 18 17 16 16 16 16 15 15 14 14 13 12 13 14 14 14 13 13 13 13
29 31 33 34 34 35 34 30 27 24 20 18 18 18 18 18 19 20 20 20 23 25 27 27 24 21 21 22 23 25 25 25 24 25 24 23 23 23 22 21 21 21 20 18 17 17 17 17 16 16 15 15 15 14 13 13 14 15 14 14 13 14 14
24 26 31 34 37 37 35 31 28 24 21 22 22 21 20 18 18 20 21 20 21 23 25 26 25 22 21 22 23 24 25 24 24 24 23 23 25 24 22 22 21 21 20 19 18 18 17 17 17 16 16 15 15 16 15 15 14 14 13 13 13 13 14
20 23 26 30 36 38 35 31 27 23 22 23 24 24 22 19 19 21 21 20 21 21 21 22 23 22 20 20 22 23 24 24 24 25 24 24 26 24 21 21 21 21 21 20 18 18 17 18 18 17 16 15 16 17 17 16 16 15 14 13 13 13 14
19 21 23 23 28 34 33 29 25 23 23 24 23 23 23 22 21 22 22 21 20 20 19 18 19 21 21 20 22 24 25 25 25 25 25 26 26 24 22 22 21 21 21 20 18 18 18 18 17 17 16 15 15 16 17 16 16 16 15 14 13 13 13
19 19 19 17 17 24 26 24 23 24 25 24 22 22 23 24 25 26 26 24 21 20 19 18 19 21 21 22 23 25 26 26 25 25 26 26 25 23 22 21 20 21 21 20 18 18 18 18 17 17 16 15 15 16 16 16 16 17 17 16 14 14 14
20 19 17 14 13 19 23 23 24 26 26 24 22 23 24 26 26 27 28 27 23 21 20 19 20 21 21 22 24 26 26 26 26 26 25 25 24 23 21 20 21 21 20 19 19 18 18 19 18 17 16 15 15 16 16 16 17 18 18 17 15 14 15
20 20 18 16 15 19 23 25 25 26 26 25 24 24 26 27 27 28 28 28 25 22 21 21 21 21 22 23 25 26 27 26 26 26 25 24 24 23 22 22 22 21 20 20 20 20 20 20 19 18 16 15 15 16 16 17 17 19 20 19 17 16 17
21 21 21 20 19 20 23 25 26 27 27 27 27 27 28 28 28 28 27 27 25 23 22 21 21 21 22 24 26 27 27 26 25 26 25 26 26 23 22 23 23 21 21 20 20 20 21 20 19 18 17 16 15 16 17 18 18 19 21 20 18 17 18
23 22 22 22 22 23 24 25 27 28 28 28 27 28 29 29 29 28 27 27 26 24 23 22 22 22 23 24 26 27 26 24 23 24 25 26 26 24 22 23 23 22 21 21 21 21 20 20 19 18 18 17 17 17 18 18 19 20 22 22 19 18 19
25 24 24 23 23 24 25 27 28 29 29 28 27 27 28 29 29 28 27 28 27 25 24 23 23 23 24 24 25 26 26 24 22 23 24 26 26 24 23 23 22 21 21 21 21 20 19 19 19 18 18 19 19 18 18 18 20 22 24 23 20 20 20
27 26 25 25 25 24 25 26 28 30 30 30 29 28 28 28 28 27 27 28 28 27 25 25 24 25 25 25 25 27 27 24 22 23 24 25 26 24 23 22 22 21 21 21 20 19 19 19 19 19 19 19 19 18 18 19 20 21 21 20 21 21 20
28 28 26 24 25 26 26 25 26 28 29 30 30 29 28 28 27 27 27 28 29 29 28 26 26 26 27 27 28 27 26 24 23 24 25 26 25 23 21 21 21 20 20 19 19 18 19 19 19 18 19 19 18 18 18 19 19 19 19 19 21 22 22
28 27 26 24 24 25 26 26 25 25 26 28 28 28 28 27 27 27 27 28 29 30 29 28 27 27 27 29 29 27 25 24 24 24 25 26 25 22 20 19 19 19 18 18 18 18 18 19 18 17 16 17 18 18 17 18 18 18 19 19 21 22 23
26 26 26 24 24 23 24 25 25 24 25 27 28 28 27 27 26 26 28 29 29 30 30 29 28 28 29 30 30 28 25 24 24 24 24 24 21 19 18 18 18 18 18 18 18 18 18 19 18 17 16 16 16 15 15 16 17 18 18 19 20 21 23
25 26 27 26 24 22 21 22 24 24 24 25 26 26 26 27 27 26 28 29 29 30 30 29 29 30 30 30 29 27 25 24 23 23 22 21 19 18 18 18 18 18 18 18 18 19 19 19 18 18 17 17 16 15 15 15 16 17 17 19 21 21 22
25 26 26 25 24 21 19 18 20 23 24 24 25 25 25 26 25 25 27 28 28 28 29 29 30 31 32 32 30 27 26 25 24 22 21 20 18 18 17 17 17 17 16 16 16 17 17 18 18 18 18 18 18 17 16 16 16 16 17 19 20 20 21
25 25 23 22 22 20 18 17 19 21 23 24 25 26 26 26 26 26 27 27 28 28 29 30 31 33 34 33 30 27 27 25 24 22 21 19 17 16 16 16 15 15 15 14 15 15 15 16 16 17 17 18 19 19 18 18 18 17 17 18 18 18 20
23 23 21 19 17 17 16 16 17 19 21 23 24 25 26 26 26 27 28 30 31 30 30 32 33 34 35 32 29 27 27 25 23 22 20 18 17 16 16 15 14 13 13 13 13 14 14 14 15 16 16 17 18 19 19 19 18 18 18 17 16 16 17
23 21 20 16 14 13 14 15 18 20 21 21 21 22 23 25 27 28 29 31 32 32 33 34 33 32 32 31 29 27 26 24 23 21 19 17 17 16 15 14 13 12 12 12 13 13 14 14 14 15 15 15 16 17 18 18 18 18 18 17 16 16 16
23 21 20 18 15 14 16 15 15 18 18 17 18 18 16 17 22 27 30 31 32 33 34 33 32 33 33 31 29 27 25 23 22 20 18 17 17 16 15 14 13 12 12 13 13 13 14 14 14 15 14 14 15 16 17 17 17 18 17 16 16 17 17
22 22 20 19 17 16 17 18 13 10 10 10 12 12 10 9 13 20 26 29 31 33 34 32 33 35 34 32 29 27 24 22 21 19 19 18 18 17 16 15 14 14 13 13 14 14 14 14 15 15 15 14 15 16 16 16 16 16 16 16 16 18 20
19 21 21 20 19 16 14 15 14 6 1 3 6 10 10 13 16 20 24 27 29 30 31 31 31 32 32 31 28 26 23 21 20 19 19 19 18 18 17 16 16 15 14 15 15 14 14 14 15 15 15 15 16 16 16 15 16 16 16 16 17 19 20
16 18 19 19 19 17 13 12 12 7 2 4 6 9 12 15 16 20 25 27 26 26 27 28 28 29 29 27 26 24 23 22 21 20 20 20 19 18 17 17 17 17 16 16 16 15 14 15 16 17 17 16 16 17 16 15 15 16 16 15 16 17 17
16 15 15 14 14 14 13 12 11 11 10 9 7 7 9 10 13 19 25 27 25 26 28 29 29 28 25 23 22 22 22 22 22 21 21 20 18 17 17 17 18 18 18 17 16 15 14 14 16 18 18 17 17 16 15 15 15 15 16 16 16 16 16
16 15 15 13 9 8 9 10 11 12 13 8 6 7 9 12 15 19 24 25 24 25 27 28 26 24 23 22 21 21 21 21 22 22 21 19 18 17 17 19 20 20 18 17 16 16 15 16 16 17 18 18 18 18 17 18 17 16 16 17 16 16 16
16 15 15 14 9 5 3 5 7 10 11 10 9 9 8 12 17 20 21 22 23 24 23 20 16 16 19 21 21 21 21 22 22 22 21 19 18 18 19 20 21 20 19 18 17 17 17 17 17 18 18 18 19 19 19 19 19 17 17 17 17 17 18
15 14 13 12 9 5 3 3 5 8 10 11 12 11 10 12 15 19 21 22 24 25 23 20 17 15 18 22 23 23 24 24 25 24 23 20 19 20 20 19 20 21 20 19 17 17 17 17 17 17 18 18 17 17 17 17 17 16 16 17 17 18 19